Temp
19 20 19 19 19 19 19 19 19 19 19 19 19 18 19 19 18 18 18 18 18 18 17 17 17 17 18 18 17 17 17 18 18 19 18 17 17 17 17 18 18 17 17
21 20 20 20 19 20 20 19 19 19 19 19 19 18 19 19 19 18 18 17 17 17 17 17 17 17 18 17 17 18 19 19 18 18 18 17 18 17 17 17 17 17 17
21 20 20 20 19 20 20 19 19 19 19 19 19 18 18 19 18 18 17 17 17 17 17 17 17 17 17 17 17 17 17 17 17 18 17 17 17 17 17 17 17 17 16
21 20 20 20 20 20 20 20 19 19 19 19 19 18 18 19 18 17 17 17 17 17 17 17 17 16 16 16 17 16 17 18 18 19 18 17 17 17 17 16 16 16 16
21 20 20 20 20 20 20 20 19 19 19 19 19 18 18 18 17 17 17 17 17 17 17 16 16 16 16 16 16 17 18 18 18 18 17 17 17 16 16 16 16 16 16
21 20 20 20 20 20 19 19 20 19 19 19 18 18 17 17 17 17 17 16 16 16 16 16 16 16 16 17 17 17 18 18 18 17 17 16 17 16 16 16 16 16 16
20 20 20 20 20 20 20 19 19 19 19 19 18 17 17 17 17 17 16 16 16 16 16 16 16 16 17 17 17 17 18 18 17 16 16 17 17 16 16 16 15 15 16
19 20 20 20 20 20 20 20 19 19 19 18 18 17 17 17 17 16 16 16 16 16 16 16 16 16 16 17 17 17 17 17 17 17 17 16 16 16 15 15 15 15 15
21 20 20 20 20 20 20 19 20 19 19 18 18 17 17 16 16 16 15 16 16 16 16 16 16 16 16 17 17 17 16 16 16 17 16 16 16 15 15 15 15 15 15
22 21 20 20 20 20 19 19 19 19 18 18 18 17 17 16 15 15 15 16 16 16 16 16 15 15 16 17 17 16 16 16 16 16 15 15 15 15 15 15 14 14 14
21 22 20 19 19 20 20 19 19 19 18 18 17 17 16 16 15 15 15 16 16 16 16 15 15 16 16 17 16 16 16 16 15 15 15 15 14 14 14 15 14 14 14
20 21 21 20 20 20 20 19 18 18 18 18 17 16 16 15 15 15 15 16 16 15 16 15 15 16 15 15 15 16 16 15 15 15 15 15 15 15 15 14 14 14 14
20 20 21 21 20 20 19 19 19 17 17 17 17 16 16 15 14 15 15 16 15 15 15 15 15 16 15 15 15 15 15 15 15 15 14 15 14 14 14 14 14 13 14
20 20 21 21 20 19 19 19 18 17 16 17 17 16 15 15 14 14 15 15 15 15 14 14 16 16 15 15 15 15 15 14 14 14 14 14 14 14 14 13 14 13 13
20 20 20 21 20 19 19 18 17 16 16 17 17 16 15 15 14 14 15 14 15 14 14 15 16 16 15 15 15 15 14 14 14 14 13 14 14 14 14 14 14 13 13
20 20 20 20 20 19 19 18 16 16 16 16 16 16 15 15 14 14 14 14 14 14 15 15 16 16 15 15 14 14 14 14 13 13 13 13 13 13 13 13 13 13 13
21 21 20 20 20 19 19 18 16 16 16 16 15 16 15 15 15 14 14 14 14 14 15 15 15 15 15 14 14 14 14 14 13 13 13 13 12 13 13 14 13 13 12
21 20 20 20 20 19 18 16 15 15 15 15 15 16 15 15 15 14 14 14 14 14 15 15 15 15 14 14 13 13 13 13 13 12 12 12 12 12 12 12 12 12 12
20 20 20 19 18 17 17 15 15 16 12 12 13 15 15 15 15 15 14 14 14 14 15 15 15 15 14 14 14 13 13 13 12 12 12 12 11 11 11 11 11 11 10
19 20 18 17 16 15 14 14 14 13 12 12 12 11 15 15 15 15 14 14 14 14 15 15 15 15 15 14 13 12 12 12 12 12 12 12 11 11 11 11 11 10 9
17 17 16 16 14 14 13 13 13 14 14 11 13 10 11 15 15 15 15 15 14 14 15 15 15 15 13 13 12 11 11 11 12 12 11 11 11 10 10 10 10 10 10
13 13 13 13 14 14 14 15 14 13 11 12 12 12 9 13 15 15 16 15 15 15 15 15 15 12 12 13 11 11 8 9 10 10 11 11 10 10 10 10 9 9 9
12 12 12 12 12 12 13 12 11 11 10 10 11 13 10 12 16 16 16 16 15 15 15 15 15 14 12 12 13 12 8 8 9 9 10 10 10 10 10 9 9 9 9
11 11 12 12 12 12 12 12 12 10 10 10 13 11 11 10 16 16 16 16 16 16 15 15 15 14 12 11 12 13 13 11 8 7 9 9 10 9 9 9 9 9 8
12 11 11 11 11 11 10 10 10 10 10 10 10 11 12 12 14 16 16 16 16 15 16 14 14 14 13 12 13 11 12 11 11 8 7 7 8 9 9 9 8 8 8
12 11 11 11 11 11 10 10 11 11 11 10 9 9 9 11 13 15 15 15 15 15 15 15 15 14 13 12 12 13 12 11 10 9 6 6 7 7 8 8 8 8 8
Height
767 767 770 771 773 775 777 779 780 781 783 786 789 791 792 795 796 797 799 800 801 803 804 805 806 808 809 811 812 813 814 815 816 816 817 818 819 821 821 820 821 822 822
763 767 770 773 774 775 777 779 782 782 784 787 789 792 793 796 797 799 800 802 803 804 805 806 807 809 811 813 814 814 816 816 817 817 817 819 821 823 823 823 825 826 826
762 766 770 773 775 777 777 780 782 784 785 788 789 792 794 796 798 800 801 803 805 806 807 808 809 810 812 813 815 816 817 817 819 819 821 823 824 824 825 827 827 828 829
763 767 769 773 775 777 778 779 781 784 786 788 790 793 795 796 798 800 802 804 805 807 808 809 810 811 813 814 815 817 818 819 821 823 823 825 826 826 827 828 830 831 832
764 766 769 772 776 777 778 779 780 783 786 789 791 793 795 796 798 800 803 804 806 807 809 810 811 813 814 816 817 818 819 821 823 825 826 827 827 829 830 831 833 834 833
763 765 767 770 774 777 777 779 781 783 785 788 792 794 795 797 798 801 803 805 806 808 810 811 812 814 816 818 820 821 822 823 825 826 827 829 831 831 832 834 834 835 836
762 764 766 768 770 774 778 779 781 783 785 787 791 794 796 797 799 801 803 806 807 809 811 813 814 816 818 819 821 823 824 826 827 829 830 831 833 834 835 836 836 837 837
761 763 764 767 768 770 775 778 781 782 784 786 790 793 796 798 799 801 803 806 808 810 812 814 816 818 819 820 823 824 826 828 829 831 832 833 835 836 837 838 839 840 840
762 762 764 765 767 768 771 776 778 781 783 786 789 791 795 798 799 801 803 806 808 811 812 814 816 818 820 821 823 826 828 830 831 833 835 837 838 839 839 840 841 841 841
761 761 762 763 765 768 769 771 776 778 781 784 789 791 793 797 799 800 803 806 808 811 812 815 817 819 820 822 825 827 829 831 833 835 838 839 840 841 842 842 843 843 843
758 759 759 761 763 764 766 768 771 776 779 783 787 790 792 795 799 799 802 806 809 811 813 815 818 820 821 823 825 827 830 833 835 838 840 840 841 842 844 844 844 845 845
753 755 755 757 760 762 764 766 770 773 777 781 784 787 790 793 798 800 802 806 809 812 813 816 818 821 822 824 827 828 831 834 837 840 841 842 844 844 845 846 847 847 847
747 751 752 752 754 758 761 764 767 770 774 777 781 785 788 791 795 800 802 805 808 811 814 816 818 820 823 824 827 829 831 834 838 841 843 844 845 846 847 848 849 849 849
743 745 748 748 750 752 756 760 763 766 769 773 776 781 785 788 792 796 800 803 806 809 812 815 817 820 823 826 828 830 831 834 839 842 844 845 846 848 848 849 851 851 852
738 740 743 745 746 749 752 755 759 761 764 769 772 777 780 784 788 792 797 801 804 807 810 814 817 821 822 826 829 831 833 834 838 843 845 847 848 849 850 851 853 853 854
732 734 737 740 742 745 747 751 754 757 759 765 767 772 776 779 784 788 793 798 802 806 809 813 817 821 823 826 830 832 833 835 838 842 845 848 849 851 852 853 854 855 856
725 727 730 734 737 740 742 747 754 753 755 757 762 766 772 776 780 784 789 795 800 804 808 813 817 821 823 827 830 833 834 836 839 842 845 848 851 852 853 855 856 856 858
719 722 725 728 732 735 738 743 746 746 747 750 756 758 766 772 776 781 785 791 797 802 806 810 814 818 823 827 830 834 835 838 840 842 845 849 851 852 853 855 856 857 859
715 718 720 723 727 730 732 737 742 740 749 748 754 750 759 766 772 776 782 787 793 799 804 807 812 816 820 826 830 834 837 838 842 843 845 849 851 854 854 855 856 857 858
712 714 716 719 721 725 728 732 737 744 741 745 750 749 748 758 766 771 777 784 790 795 801 805 810 814 818 824 830 835 839 840 842 845 846 848 851 853 855 856 856 857 858
710 712 713 716 719 722 726 729 732 733 731 738 751 754 756 751 760 765 771 779 786 791 796 802 807 810 815 821 828 837 841 843 843 845 847 847 850 852 854 855 856 857 858
710 712 713 715 716 719 721 724 725 726 730 731 745 750 752 758 758 761 766 774 781 787 793 798 802 808 812 817 823 833 845 848 846 845 846 847 848 850 852 854 856 857 857
712 713 714 716 718 720 721 723 726 727 730 729 736 735 755 758 761 761 764 770 777 782 787 792 797 802 807 813 815 820 838 840 843 845 845 846 847 848 850 852 855 856 857
712 714 715 716 718 721 721 721 721 723 726 731 716 740 754 758 758 761 762 767 774 780 784 789 794 798 803 807 812 815 818 822 836 844 844 845 847 849 850 852 854 855 856
714 713 715 717 718 720 724 723 722 725 730 728 723 735 741 748 756 757 761 766 770 777 782 786 791 795 799 804 806 810 816 820 825 829 839 842 844 847 850 851 853 853 854
716 715 714 715 717 719 721 723 720 724 725 726 725 729 740 743 752 754 757 764 767 774 779 783 787 791 796 801 805 807 811 815 820 822 830 838 842 845 848 851 852 852 853
Wind_Speed
17 23 21 21 23 24 23 21 22 22 20 19 18 19 20 19 18 19 18 18 16 14 12 12 13 13 15 15 16 16 15 14 13 14 15 16 15 15 14 15 17 20 19
23 25 21 21 23 22 24 21 21 22 22 21 20 18 19 18 18 17 16 14 13 12 12 13 14 15 16 15 15 15 18 19 19 18 17 15 16 14 13 16 18 17 18
27 26 23 23 21 23 24 22 20 21 22 22 19 17 18 17 16 16 15 14 13 13 14 15 15 18 17 17 17 20 21 24 23 22 21 17 17 18 18 18 19 18 15
25 26 25 22 22 22 23 23 22 22 22 22 18 17 17 16 16 14 14 13 13 14 15 16 16 16 17 18 19 18 17 19 18 17 19 21 21 19 21 21 21 19 16
21 24 23 21 22 22 22 23 25 25 23 20 17 18 17 17 16 14 13 14 15 15 16 16 16 17 18 19 18 15 14 17 14 15 13 18 17 17 19 19 17 16 17
18 23 24 23 21 22 20 23 23 24 24 20 18 18 18 17 16 15 14 15 17 18 16 16 17 18 21 19 18 19 20 20 17 17 18 19 18 18 18 18 18 18 17
17 20 24 25 24 25 22 22 23 25 25 20 19 17 17 17 17 17 16 16 17 18 17 18 19 21 21 17 20 21 21 20 22 22 23 20 18 18 17 19 18 19 19
12 19 24 27 27 29 28 25 25 26 25 21 20 19 18 18 18 18 18 18 18 19 20 20 22 20 18 20 21 20 22 24 25 24 20 18 17 16 16 17 15 15 17
3 14 23 28 27 30 32 28 28 27 25 22 21 22 20 20 20 19 19 19 19 20 21 22 22 19 17 23 23 22 25 25 23 21 18 15 14 16 15 13 14 14 14
7 3 21 28 30 30 31 32 29 30 27 22 23 22 22 22 22 22 22 20 20 21 22 22 22 19 19 25 24 25 25 24 24 22 19 17 17 16 15 16 16 16 14
6 10 8 29 31 32 33 33 32 31 29 24 25 24 25 24 22 23 24 21 21 22 23 22 23 25 25 27 27 26 25 24 21 21 18 17 17 17 17 16 16 16 16
12 10 15 18 31 31 35 33 33 33 30 28 28 28 27 24 24 25 25 23 23 23 23 23 26 26 25 25 26 25 22 21 23 20 18 17 16 16 16 16 16 15 16
20 15 15 17 25 35 33 34 34 35 34 33 31 30 28 25 26 27 25 25 25 24 23 24 29 27 23 22 28 25 23 24 23 19 16 15 15 15 15 14 14 15 15
17 15 16 20 19 31 35 35 35 36 36 36 34 33 30 29 29 32 28 28 29 27 24 27 31 28 20 20 27 26 24 26 23 20 17 17 16 15 15 15 14 14 14
21 19 17 22 18 24 34 34 34 37 40 39 38 35 33 33 34 35 30 30 31 28 27 30 30 27 19 26 28 27 28 27 25 20 18 17 17 15 15 15 14 14 14
27 25 23 24 22 17 30 32 35 37 42 40 41 39 36 37 38 38 34 33 34 29 28 32 32 26 20 35 31 29 28 27 24 23 20 18 16 15 13 16 14 14 13
29 30 27 27 26 21 26 32 30 36 38 43 40 41 40 40 40 41 39 37 36 32 30 32 30 23 21 32 30 28 26 24 23 21 18 16 18 15 14 14 14 13 12
28 27 28 29 27 24 22 23 12 10 30 41 41 44 44 42 41 42 41 39 38 34 35 33 29 23 26 35 33 28 26 22 21 20 17 16 18 18 18 16 14 13 12
26 25 24 25 24 21 20 26 19 3 13 3 28 47 49 45 44 43 41 40 39 37 37 34 28 28 33 35 31 27 24 22 21 20 18 16 17 15 16 16 15 15 13
21 19 18 20 18 20 26 26 22 17 3 12 11 17 51 47 48 44 41 41 42 39 38 34 32 35 35 35 31 27 24 23 21 18 18 17 16 14 13 12 10 10 9
11 11 15 18 19 23 25 22 15 14 17 13 12 10 23 46 50 45 42 43 44 40 40 35 37 38 37 38 32 24 20 20 20 19 17 17 15 13 11 10 9 8 7
6 9 12 19 23 24 25 22 18 18 16 23 21 19 9 33 47 44 43 44 46 42 39 39 38 29 35 40 21 22 3 6 15 19 18 17 16 14 13 10 8 6 5
4 8 12 17 23 23 25 23 22 18 21 20 26 22 22 22 39 42 43 45 43 45 43 44 43 34 32 28 44 11 3 4 8 13 18 18 17 16 13 11 9 6 5
7 7 11 14 22 22 25 28 34 27 17 19 37 28 26 20 35 39 43 44 42 43 43 43 47 39 35 30 33 19 9 16 4 3 13 18 18 17 14 13 10 8 6
4 7 10 14 22 23 24 21 24 18 16 16 26 43 44 30 32 36 39 41 41 41 43 43 41 40 40 32 31 20 15 14 10 5 3 8 19 20 17 13 12 10 6
10 6 9 14 18 25 28 20 26 16 18 18 12 20 24 33 35 34 36 39 41 42 43 46 46 43 39 32 30 29 23 10 11 6 3 7 12 18 18 15 13 10 8
Wind_Direction
178 164 171 166 165 164 161 157 155 151 146 143 141 136 136 139 136 128 133 137 138 135 138 137 137 134 126 122 115 112 112 110 106 104 109 107 97 106 89 95 87 78 79
179 172 177 169 170 165 166 164 160 157 148 150 145 143 141 147 145 139 136 137 135 136 137 138 140 140 137 134 126 116 110 107 106 102 105 112 109 111 99 100 91 83 75
171 172 177 174 174 173 167 167 168 160 159 154 146 146 148 156 148 143 140 141 139 139 138 136 136 137 139 137 127 121 115 103 102 97 100 117 114 111 109 109 100 91 82
170 174 178 180 175 179 177 172 169 169 166 159 155 153 154 161 157 147 144 143 141 141 140 138 136 136 135 132 128 126 122 121 110 118 107 95 95 106 104 94 91 91 82
172 178 177 179 189 183 180 174 175 173 171 164 165 162 161 164 157 149 149 148 145 145 144 139 137 134 132 129 126 125 129 138 120 123 115 102 95 87 89 89 91 91 88
176 182 179 178 185 193 191 183 182 178 168 163 170 171 164 161 156 154 155 154 151 148 146 143 139 136 130 132 131 129 130 137 123 117 117 108 105 97 100 101 96 95 96
181 187 189 186 183 192 197 192 185 180 176 176 178 172 169 165 160 157 159 158 153 149 147 143 139 137 135 134 130 131 133 137 118 119 118 115 108 103 99 97 89 84 88
178 195 195 196 191 190 197 199 194 190 190 181 178 174 173 169 164 162 160 160 157 153 149 145 143 139 127 127 136 130 133 134 126 117 108 108 106 104 93 93 90 92 82
80 204 206 202 202 198 196 201 200 200 193 187 183 177 175 173 167 164 162 162 161 157 153 148 146 139 124 133 139 139 133 128 119 123 115 115 116 103 101 106 99 103 98
307 291 215 209 206 208 199 200 203 201 196 188 188 183 179 180 173 166 163 165 164 162 157 154 150 141 126 141 140 136 134 125 115 112 115 116 109 110 112 105 99 97 100
249 273 227 214 213 211 208 203 199 201 198 191 190 187 184 182 177 169 164 167 167 164 161 159 155 138 134 141 142 137 135 130 120 118 119 118 110 109 108 105 102 101 99
251 253 255 230 223 218 216 208 199 199 193 191 192 191 189 186 179 173 164 170 169 168 164 163 161 147 138 136 140 140 137 132 125 124 128 120 117 114 112 109 105 105 102
263 239 255 246 228 221 222 214 206 197 192 193 198 194 190 185 177 174 168 171 171 169 167 170 166 158 145 138 144 139 138 135 128 127 124 123 119 116 113 108 104 105 102
255 245 240 247 236 223 219 216 210 195 192 196 195 196 191 183 179 175 174 175 174 171 173 176 166 162 146 144 151 145 141 136 133 130 130 118 118 116 114 110 106 103 99
238 244 232 241 239 233 221 214 206 197 196 201 197 197 195 186 181 177 177 178 177 174 178 172 169 164 147 156 155 148 142 139 139 135 130 132 122 119 118 114 107 102 99
243 242 235 229 244 237 227 214 206 201 200 200 195 199 197 190 183 180 181 181 180 178 178 171 168 163 149 157 155 150 146 148 144 144 143 139 129 117 115 114 106 102 98
238 242 236 229 234 230 222 217 210 205 200 200 196 199 197 192 187 183 182 183 182 181 177 172 171 167 156 164 158 153 149 152 149 151 149 144 131 124 115 116 111 106 99
234 238 240 235 230 229 219 204 179 359 205 198 197 197 197 195 190 186 184 185 183 182 177 172 175 173 161 165 159 153 150 153 154 155 152 145 143 136 133 124 119 106 102
233 239 243 235 233 225 194 183 201 210 359 208 205 195 196 196 193 190 188 186 183 183 182 179 183 176 163 161 156 154 151 151 154 149 146 146 149 150 144 141 136 127 101
229 236 237 224 215 196 183 188 204 227 260 312 295 226 190 194 195 192 190 188 184 185 185 185 179 169 159 156 153 153 152 150 152 152 147 145 147 146 143 142 142 135 121
220 216 220 202 188 184 175 183 202 221 241 259 253 267 219 190 193 191 188 187 187 188 186 187 175 164 153 155 142 139 145 154 159 161 161 157 158 158 155 154 148 140 125
184 182 179 189 181 184 185 184 196 183 198 206 212 222 251 195 191 189 186 185 188 192 189 186 175 157 154 153 143 127 121 127 159 162 169 171 170 171 169 170 168 161 146
213 185 177 193 181 177 173 167 160 161 156 151 178 198 208 216 196 192 188 189 190 190 189 184 177 167 163 162 155 145 143 186 148 181 177 179 178 176 175 174 179 174 160
229 225 196 199 197 190 183 178 175 173 175 192 152 164 182 240 191 193 190 190 192 193 190 185 182 175 169 166 173 178 162 140 172 156 200 186 185 185 184 183 186 179 171
242 224 202 197 201 200 184 180 174 179 190 189 160 179 192 208 207 197 195 193 193 195 194 185 181 181 180 178 183 169 161 158 148 139 155 177 188 190 193 196 191 183 181
343 270 228 213 212 204 205 213 193 194 174 163 171 177 192 193 211 199 199 198 199 199 196 193 192 191 185 189 189 190 176 165 177 154 119 152 169 187 191 195 199 197 193